STARLINK-5756, 55598

Orbit data source: Space-Track

STARLINK-5756, 55598 is a payload satellite owned by SpaceX/Seattle (US) in LEO that was launched on Sun, 12 Feb 2023 UTC via an FALCON 9 launch vehicle from the Air Force Eastern Test Range (AFETR). Payload-class satellites include a variety of spacecraft equipped with specific instruments for various scientific and technological missions. These include communications satellites like Starlink; space stations such as the ISS; scientific satellites like the Hubble; Earth observation satellites from companies like Planet Labs, Umbra, and HawkEye 360; GPS; miniature CubeSats for education and research; and military/defense satellites.

Loading next visibility...
Identifier
55598, 2023-020AF
Orbit
LEO
Country
Flag of USUS
Related business
Manufacturer
SpaceX/Seattle
Mission
Operational spacecraft
Bus & Motor
STARLINK, Unknown motor
Mass
305 kg wet, ~290 kg dry
Launch date (UTC)
2023-02-12 (3 years ago)
Launch vehicle
FALCON 9
Launch site
Air Force Eastern Test Range (AFETR)
Object type
Payload
Rocket body
Debris
Shape & HBR
Unknown shape, 10.1 m
Radar Cross Section
Large (>1 m²)

Expand to show TLE details & history
Last TLE update: 17 hours ago

TLE from 17 hours ago
0 STARLINK-5756
1 55598U 23020AF  25340.75333225  .00001352  00000-0  11514-3 0  9999
2 55598  43.0008 137.1159 0001467 272.3853  87.6822 15.02533962155082
Epoch: 2025-12-06T18:04Z
TLE epoch observation values (Epoch: 2025-12-06T18:04:47.906Z)
Latitude
0.00003°
Longitude
150.13978°
Altitude
558.823 km
Speed
7.584 km/s
True Right ascension
09h 08m 27s
True Declination
0° 00' 00"
Sunlit
Object was in full shadow at epoch
Visualization orbit readout
Latitude
Unknown
Longitude
Unknown
Altitude
Unknown
Speed
Unknown
Apparent Right ascension
Unknown
Apparent Declination
Unknown
Sunlit
N/A
Visualization observer readout
Local Sidereal Time
09:33:09
Azimuth
Unknown
Elevation
Unknown
Doppler factor
Unknown
Orbital elements
Apogee altitude
562.028 km
Perigee altitude
559.992 km
Semi-major axis
6,939.147 km
Eccentricity
0.00015
Inclination
43.0008°
RAAN
137.1159°
Arg. of periapsis
272.3853°
True anomaly
87.699°
Mean anomaly
87.6822°
Eccentric anomaly
87.6906°
Mean motion
3.75478 °/min
Orbital period
95.88 mins
BSTAR
0.00011514
Loading maneuver chart data...
Computing Atmospheric mass density...
Loading historical data...
Loading historical data...
Loading historical data...
Loading historical data...
Loading historical data...
Loading historical data...
Loading historical data...

Documentation

Showing up to 5 results
|